TimeEDT,TemperatureF,Dew PointF,Humidity,Sea Level PressureIn,VisibilityMPH,Wind Direction,Wind SpeedMPH,Gust SpeedMPH,PrecipitationIn,Events,Conditions,WindDirDegrees,DateUTC
12:54 AM,57.0,55.9,96,29.88,6.0,Calm,Calm,-,N/A,,Clear,0,2012-10-06 04:54:00
1:54 AM,55.9,54.0,93,29.86,4.0,Calm,Calm,-,N/A,,Clear,0,2012-10-06 05:54:00
2:29 AM,55.4,53.6,94,29.85,5.0,Calm,Calm,-,N/A,,Partly Cloudy,0,2012-10-06 06:29:00
2:54 AM,55.9,55.0,97,29.83,5.0,Calm,Calm,-,N/A,,Clear,0,2012-10-06 06:54:00
3:54 AM,55.9,55.0,97,29.81,4.0,Calm,Calm,-,N/A,,Clear,0,2012-10-06 07:54:00
4:54 AM,55.9,54.0,93,29.79,5.0,Calm,Calm,-,N/A,,Clear,0,2012-10-06 08:54:00
5:54 AM,55.9,54.0,93,29.78,5.0,WNW,3.5,-,N/A,,Clear,290,2012-10-06 09:54:00
6:54 AM,55.9,55.0,97,29.78,4.0,Calm,Calm,-,N/A,,Mostly Cloudy,0,2012-10-06 10:54:00
7:31 AM,57.2,55.4,94,29.80,2.5,West,8.1,-,0.01,Rain,Light Rain,260,2012-10-06 11:31:00
7:47 AM,57.2,55.4,94,29.80,1.5,WNW,6.9,-,0.01,Rain,Light Rain,290,2012-10-06 11:47:00
7:54 AM,57.0,55.9,96,29.79,1.5,WNW,5.8,-,0.02,Rain,Light Rain,290,2012-10-06 11:54:00
8:06 AM,57.2,55.4,94,29.79,2.0,Calm,Calm,-,0.00,Rain,Light Rain,0,2012-10-06 12:06:00
8:19 AM,57.2,55.4,94,29.80,2.0,Calm,Calm,-,0.00,Rain,Light Rain,0,2012-10-06 12:19:00
8:54 AM,57.9,55.9,93,29.80,2.0,Calm,Calm,-,0.01,Rain,Light Rain,0,2012-10-06 12:54:00
9:54 AM,57.9,57.0,97,29.82,3.0,WNW,8.1,-,0.00,,Overcast,290,2012-10-06 13:54:00
10:37 AM,59.0,57.2,94,29.83,5.0,West,10.4,-,N/A,,Overcast,270,2012-10-06 14:37:00
10:54 AM,60.1,57.0,90,29.84,7.0,West,11.5,-,N/A,,Overcast,260,2012-10-06 14:54:00
11:10 AM,59.0,53.6,82,29.85,10.0,WNW,16.1,23.0,N/A,,Overcast,290,2012-10-06 15:10:00
11:44 AM,60.8,53.6,77,29.86,10.0,West,16.1,23.0,N/A,,Overcast,280,2012-10-06 15:44:00
11:54 AM,60.1,53.1,78,29.87,10.0,West,15.0,23.0,N/A,,Overcast,260,2012-10-06 15:54:00
12:22 PM,57.2,50.0,77,29.88,10.0,NW,9.2,19.6,N/A,,Overcast,320,2012-10-06 16:22:00
12:54 PM,59.0,48.0,67,29.89,10.0,West,13.8,20.7,N/A,,Overcast,280,2012-10-06 16:54:00
1:54 PM,57.9,45.0,62,29.90,10.0,WNW,12.7,20.7,N/A,,Overcast,290,2012-10-06 17:54:00
2:54 PM,57.0,43.0,59,29.93,10.0,WNW,16.1,24.2,N/A,,Overcast,290,2012-10-06 18:54:00
3:54 PM,60.1,41.0,49,29.93,10.0,West,11.5,-,N/A,,Scattered Clouds,270,2012-10-06 19:54:00
4:54 PM,60.1,39.0,46,29.92,10.0,West,6.9,-,N/A,,Mostly Cloudy,260,2012-10-06 20:54:00
5:54 PM,57.9,37.9,47,29.93,10.0,WNW,8.1,-,N/A,,Clear,290,2012-10-06 21:54:00
6:54 PM,53.1,42.1,66,29.95,10.0,WSW,3.5,-,N/A,,Clear,250,2012-10-06 22:54:00
7:54 PM,48.0,43.0,83,29.98,10.0,West,3.5,-,N/A,,Partly Cloudy,270,2012-10-06 23:54:00
8:54 PM,48.0,39.9,74,30.02,10.0,Calm,Calm,-,N/A,,Partly Cloudy,0,2012-10-07 00:54:00
9:54 PM,48.0,41.0,77,30.04,10.0,West,4.6,-,N/A,,Mostly Cloudy,280,2012-10-07 01:54:00
10:54 PM,46.9,39.0,74,30.05,10.0,Calm,Calm,-,N/A,,Clear,0,2012-10-07 02:54:00
11:54 PM,46.9,39.0,74,30.06,10.0,WNW,4.6,-,N/A,,Clear,300,2012-10-07 03:54:00